Regional Weather Roundup
Issued by NWS

Home | Current Version | Previous Version | Graphics & Text | Print | Product List | Glossary On
Versions: 1 2 3 4 5 6 7 8 9 10 11 12 13 14 15 16 17 18 19 20 21 22 23 24 25 26 27 28 29 30 31 32 33 34 35 36 37 38 39 40 41 42 43 44 45 46 47 48 49 50
000
ASUS43 KLOT 131010
RWRIL

ILLINOIS REGIONAL WEATHER ROUNDUP
NATIONAL WEATHER SERVICE CHICAGO/ROMEOVILLE IL
500 AM CDT SUN JUL 13 2014

NOTE: "FAIR" INDICATES FEW OR NO CLOUDS BELOW 12,000 FEET WITH NO
SIGNIFICANT WEATHER AND/OR OBSTRUCTIONS TO VISIBILITY.

* THESE STATIONS ARE NOT UNDER NWS QUALITY CONTROL. THEY ALSO MAY NOT
  REPORT WEATHER SUCH AS PRECIPITATION OR FOG.

ILZ001-002-007-009-015-016-024-131100-
NORTHWEST ILLINOIS

CITY           SKY/WX    TMP DP  RH WIND       PRES   REMARKS
MOLINE         CLOUDY    66  64  93 W3        29.95S
STERLING*      MOCLDY    64  63  94 NW6       29.95R
SAVANNA*       MOCLDY    66  64  91 W3        29.94
$$

ILZ003-004-008-010-011-017-018-131100-
NORTH CENTRAL ILLINOIS

CITY           SKY/WX    TMP DP  RH WIND       PRES   REMARKS
ROCKFORD       MOCLDY    66  63  90 W7        29.94R
FREEPORT*      PTCLDY    61  59  94 W3        29.95R
ROCHELLE*      CLOUDY    67  65  94 W7        29.93R
DE KALB*       PTCLDY    65  64  97 NW9       29.93R
PERU*          CLOUDY    67  65  93 NW5       29.94R
$$

ILZ005-006-012>014-019>023-131100-
NORTHEAST ILLINOIS

CITY           SKY/WX    TMP DP  RH WIND       PRES   REMARKS
CHICAGO-OHARE  MOCLDY    70  65  84 W7        29.89R
CHICAGO-MIDWAY CLOUDY    72  70  93 NW9       29.89R
AURORA         MOCLDY    69  66  90 NW6       29.92R
LANSING*       CLOUDY    71  68  91 W7        29.90R
JOLIET*        CLOUDY    69  67  95 NW3       29.92R
WAUKEGAN       PTCLDY    65  63  93 W5        29.88R
DUPAGE AIRPORT CLOUDY    70  67  90 W5        29.91R
KANKAKEE*      CLOUDY    72  71  96 SW9       29.92S
WHEELING       PTCLDY    70  67  90 W3        29.91R
MORRIS*        CLOUDY    70  70  99 W6        29.92R
ROMEOVILLE*    CLOUDY    69  69  98 NW7       29.91R
NORTHERLY ISL    N/A     71  67  87 W3          N/A
$$

LMZ740>746-131100-
SOUTHERN LAKE MICHIGAN

STATION/POSITION SKY/WX   TEMP    WIND        PRES    VSBY  WAVE
                          AIR SEA DIR/SP/G                  HT/PER
                          (F)     (DEG/KT/KT) (MB)    (MI)  (FT/S)
SOUTHERN BUOY              66 64  290/ 10/ 12 1010.9R         2/ 4
WAUKEGAN HARBOR            67     290/  6/  8 1012.9S
HARRISON CRIB              70     280/ 11/ 12   N/A
BURNHAM HARBOR             71     300/  6/ 12   N/A
CALUMET HARBOR             71     280/  3/  7 1012.9S
MICHIGAN CITY              70     240/ 15/ 16   N/A
$$

ILZ025>027-034>036-040-047-049-050-058-095>099-131100-
WEST-CENTRAL ILLINOIS

CITY           SKY/WX    TMP DP  RH WIND       PRES   REMARKS
QUINCY         LGT RAIN  73  71  93 W3        29.98R
GALESBURG*     CLOUDY    68  68  99 W5        29.97R
MACOMB*        CLOUDY    70  70 100 W6        29.99S
JACKSONVILLE*  CLOUDY    73  71  93 S6        30.00F
PITTSFIELD*    LGT RAIN  74  71  88 CALM      29.99R
$$

ILZ028>032-037-038-041>044-048-051>054-059>061-131100-
CENTRAL ILLINOIS

CITY           SKY/WX    TMP DP  RH WIND       PRES   REMARKS
PONTIAC        CLOUDY    73  72  94 NW8       29.93R
BLOOMINGTON    CLOUDY    71  69  93 W8        29.96R
DECATUR        LGT RAIN  74  71  91 NW10      29.98R
PEORIA         CLOUDY    73  70  90 W7        29.95S
LACON*         CLOUDY    69  66  90 NW7       29.94R
LINCOLN*       TSTM      73  70  93 CALM      29.93F
SPRINGFIELD    TSTM      74  72  93 W6        29.99R
TAYLORVILLE    CLOUDY    73  70  88 N6        29.99R
$$

ILZ033-039-045-046-055>057-062-063-131100-
EAST-CENTRAL ILLINOIS

CITY           SKY/WX    TMP DP  RH WIND       PRES   REMARKS
CHAMPAIGN      HVY RAIN  73  70  90 W15       29.97S FOG
RANTOUL*       RAIN      73  70  88 W10G16    29.97R
MATTOON        CLOUDY    77  72  84 NW16G25   29.97R
PARIS*         CLOUDY    77  73  88 W7        29.98R
$$

ILZ079-100>102-131100-
SOUTHWEST ILLINOIS

CITY           SKY/WX    TMP DP  RH WIND       PRES   REMARKS
ALTON          PTCLDY    79  73  82 SW8       29.97S HX  82
BELLEVILLE     CLEAR     76  74  93 S5        29.97R
CAHOKIA*       CLEAR     80  71  74 SW5       29.97R HX  84
SPARTA*        PTCLDY    73  72  94 SW6       30.00S
$$

ILZ064>066-069>071-074>076-080>082-084>086-088>090-092>094-131100-
SOUTH-CENTRAL ILLINOIS

CITY           SKY/WX    TMP DP  RH WIND       PRES   REMARKS
CARBONDALE     PTCLDY    79  72  79 SW9       30.01R HX  82
CAIRO*         CLEAR     78  73  82 SW5       30.02S HX  81
MARION         PTCLDY    79  73  83 SW3       30.02R HX  82
MT. VERNON     PTCLDY    75  70  83 SW9       30.00R
CENTRALIA*     CLEAR     76  70  84 SW8       29.99R
SALEM*         CLEAR     79  74  85 SW8       29.99R HX  83
METROPOLIS*    CLEAR     76  69  79 SW3       30.02S
$$

ILZ067-068-072-073-078-083-087-091-131100-
SOUTHEAST ILLINOIS

CITY           SKY/WX    TMP DP  RH WIND       PRES   REMARKS
FLORA*         PTCLDY    76  72  86 SW8       29.99R
HARRISBURG*    PTCLDY    75  73  95 S3        30.02R
ROBINSON*      MOCLDY    76  74  91 SW7       29.98S
CARMI*         PTCLDY    77  74  88 S7        30.00R
$$

ABBREVIATIONS USED IN REMARKS
   TC - TEMPERATURE IN CELSIUS
  WCI - WIND CHILL INDEX
   HX - HEAT INDEX
  VSB - VISIBILITY
$$




USA.gov is the U.S. government's official web portal to all federal, state and local government web resources and services.